RH
55 58 61 64 67 72 75 75 73 69 64 60 58 57 54 48 42 39 37 35 34 32 30 28 26 27 27 26 26 26 25 28 32 33 33 32 31 32 33 34 36 37 36 36 35 34 33 34 34 34 34 34 34 34 35 36 36 36 37 38 39 40 39
53 56 58 60 63 67 72 74 74 70 67 63 61 60 58 53 46 41 38 36 34 34 32 29 27 25 26 26 25 25 24 25 28 32 33 32 29 29 30 31 32 33 34 34 33 32 31 31 31 32 32 33 33 33 34 34 35 35 36 37 38 39 40
54 54 56 58 60 64 69 73 73 71 68 65 64 64 62 58 52 45 41 38 36 34 32 31 28 26 25 26 25 25 24 23 24 27 31 32 30 27 27 28 29 30 32 33 32 31 30 29 29 30 30 31 32 33 33 34 34 34 35 35 36 37 39
56 56 56 58 60 62 66 71 74 73 71 68 67 68 68 65 59 53 47 42 39 36 34 32 30 28 26 25 25 24 24 24 23 24 27 29 30 28 26 26 26 27 29 31 31 31 30 29 28 28 28 29 31 32 33 34 34 34 34 34 35 35 37
56 58 59 59 60 62 64 69 74 76 75 73 71 71 71 71 67 61 55 49 44 40 37 34 32 30 28 26 25 25 25 24 24 23 23 25 28 29 28 26 25 25 27 28 30 31 30 29 28 27 28 28 29 30 31 33 33 34 34 34 34 34 35
55 58 61 61 61 62 64 68 71 74 75 76 75 74 73 71 69 67 63 57 51 45 42 37 33 31 30 29 27 26 26 25 24 24 23 23 25 27 28 27 25 24 25 26 28 30 30 30 28 27 27 27 28 29 29 31 32 33 34 34 34 33 33
55 58 60 60 60 61 63 65 66 69 72 74 75 75 74 72 71 71 70 66 59 53 47 42 38 33 31 30 30 28 28 27 25 25 25 24 24 24 26 27 26 25 25 25 27 28 29 29 29 27 26 26 27 28 28 28 29 30 31 32 33 34 34
56 58 58 58 58 58 58 60 61 63 67 71 73 74 75 74 75 75 76 74 70 62 55 49 44 39 34 32 32 31 30 29 28 26 25 25 24 24 24 25 26 25 26 26 26 26 27 27 28 28 27 26 26 27 27 27 27 28 28 29 29 31 33
56 57 57 58 59 58 57 57 59 60 64 68 71 73 73 73 75 77 77 77 74 70 66 59 52 46 42 36 33 33 32 32 30 29 27 26 25 24 24 24 24 25 25 25 26 25 25 26 26 27 27 26 26 26 26 26 26 26 26 27 28 29 30
57 58 58 58 58 61 60 58 59 62 64 67 68 71 73 73 73 75 75 75 74 73 72 68 60 52 47 42 37 35 34 33 32 31 29 28 26 25 25 25 24 24 24 24 24 24 24 24 25 25 26 25 25 25 25 26 26 26 25 25 27 28 30
59 61 60 55 51 57 62 63 64 64 66 69 69 70 72 73 72 72 73 73 74 76 75 72 67 58 51 47 43 40 37 35 34 33 31 30 29 27 27 26 25 24 24 23 23 23 23 23 23 24 24 24 24 24 24 25 25 26 26 25 25 26 28
63 66 65 57 49 51 58 64 67 68 70 73 74 73 73 74 74 73 73 72 73 76 75 73 69 64 59 54 49 45 42 40 38 35 33 32 31 30 29 28 27 26 25 24 22 22 21 21 22 22 22 23 23 23 23 24 24 25 25 25 25 25 26
66 68 68 63 56 53 55 62 68 71 73 76 79 80 77 76 76 75 74 72 71 73 73 70 66 63 62 58 54 50 47 45 42 39 37 35 33 32 32 30 29 28 27 25 24 22 21 20 20 20 21 21 22 22 22 22 23 23 23 23 24 25 26
65 68 67 65 63 58 55 59 66 70 72 74 79 84 83 78 76 76 77 76 74 73 72 70 65 61 58 56 54 53 51 48 46 44 42 40 37 35 33 32 31 29 29 28 26 25 23 21 20 19 19 19 20 21 21 21 21 21 21 21 22 23 24
61 65 66 65 63 59 54 56 63 68 69 69 72 79 85 84 80 78 78 79 78 77 75 73 69 65 60 56 52 52 53 52 49 47 46 45 42 38 35 34 33 32 31 30 29 28 26 25 23 21 20 19 18 18 19 19 20 20 20 19 20 20 22
55 60 63 62 60 57 54 54 60 67 69 67 66 72 78 81 83 82 80 79 80 79 78 77 74 70 66 61 56 52 52 53 52 49 47 46 44 41 38 36 35 34 33 31 31 30 30 28 27 25 23 21 19 18 17 17 17 17 18 18 18 19 20
51 55 58 60 60 58 55 54 57 64 68 67 65 66 70 74 79 83 83 81 80 80 80 79 77 75 71 67 63 58 53 52 52 51 49 47 46 43 40 38 36 35 35 34 33 32 31 31 30 28 26 24 21 19 18 16 16 16 16 16 16 17 17
52 53 55 59 61 61 59 56 55 59 64 66 63 62 64 67 72 78 82 82 81 80 81 81 80 79 77 73 68 63 57 53 52 52 51 50 48 46 43 41 39 37 36 35 34 34 33 32 31 30 30 28 25 23 19 16 15 16 16 15 15 15 15
55 55 55 56 60 64 65 63 60 58 58 60 60 59 60 62 66 72 77 80 81 81 81 84 84 82 80 77 72 67 62 56 52 51 51 51 50 49 48 46 44 41 38 37 36 36 35 34 33 32 32 31 29 27 23 20 17 16 15 15 15 15 15
56 57 56 54 56 60 64 66 66 62 57 55 55 55 57 60 65 71 73 76 80 81 81 84 86 84 81 79 77 73 67 62 56 52 51 50 50 50 49 49 47 45 44 42 39 37 36 35 35 34 34 33 31 30 28 25 22 19 18 17 16 16 16
54 56 55 55 55 56 58 62 66 66 61 56 53 51 50 53 60 69 73 73 75 77 79 81 82 83 84 83 82 79 73 69 64 59 55 53 51 50 49 47 46 46 46 46 45 42 39 37 36 35 35 34 33 32 31 29 27 25 23 21 20 20 20
53 53 53 53 55 55 56 59 63 66 65 61 57 54 50 48 52 60 68 73 73 72 74 77 77 80 84 86 86 85 81 77 74 69 64 61 57 53 50 47 47 47 47 47 47 47 44 41 39 37 35 35 34 33 32 31 30 29 27 25 25 26 27
51 51 50 50 51 54 57 60 62 64 65 63 61 60 56 50 48 50 58 68 71 69 69 72 73 76 79 81 84 86 84 83 81 77 72 68 63 57 53 50 49 48 48 48 47 47 46 44 42 40 38 36 35 34 33 31 31 30 30 29 29 30 30
50 49 48 48 48 49 53 58 61 63 64 63 63 63 61 57 52 50 52 59 64 66 67 69 70 72 75 77 80 82 83 83 83 82 78 74 69 64 59 57 55 53 51 50 48 46 45 45 44 43 41 39 37 35 33 31 30 30 30 30 31 32 32
49 48 46 45 47 47 47 50 55 58 60 63 64 63 63 61 59 56 55 56 58 60 62 64 67 70 73 75 76 77 81 83 83 83 83 79 76 72 69 67 64 60 55 53 52 50 47 46 44 42 41 39 37 35 33 31 30 30 29 29 29 31 31
48 48 46 45 45 47 47 47 47 49 51 56 61 64 65 64 62 61 60 60 60 59 56 57 62 66 70 73 74 73 75 79 80 81 83 83 81 78 77 76 73 68 61 58 57 56 52 50 47 43 40 38 37 35 33 30 29 29 29 29 29 29 30
44 45 45 45 44 45 47 47 46 46 45 46 50 56 62 66 65 63 63 64 65 63 57 54 57 59 62 67 71 71 70 71 73 73 77 83 86 84 83 82 79 74 68 64 63 61 58 56 53 47 41 38 37 36 33 31 29 28 28 29 29 29 29
43 42 42 43 43 43 44 46 46 47 46 45 43 44 50 58 64 66 65 65 66 67 62 56 54 55 54 54 59 66 69 70 70 71 74 81 85 85 84 83 81 78 74 71 68 65 62 60 57 51 45 42 40 38 35 32 30 28 27 27 28 28 28
42 41 40 41 41 41 41 42 44 45 45 46 44 42 42 46 53 62 67 66 66 67 66 61 55 54 54 50 48 55 64 67 69 72 74 75 79 82 81 81 81 82 81 77 72 66 62 61 60 55 51 48 45 42 39 35 30 27 26 26 27 27 27
37 37 37 37 38 39 39 40 41 42 43 43 43 43 43 41 43 50 61 67 67 66 66 65 59 55 55 52 48 50 56 60 64 69 70 69 70 74 76 78 82 85 84 82 77 69 64 63 63 60 57 53 49 45 43 38 31 26 25 26 26 26 26
32 32 33 34 34 34 35 37 39 40 41 41 42 42 42 42 42 43 49 60 67 68 67 65 62 58 56 55 53 51 52 54 56 61 67 68 65 64 66 73 84 88 85 81 78 74 69 68 69 68 64 59 52 47 43 39 32 27 26 27 27 27 27
28 28 30 31 32 32 31 32 34 36 38 39 40 40 40 41 42 42 42 48 58 67 70 68 64 61 58 57 56 55 53 52 50 52 58 63 64 62 63 69 80 88 87 83 80 79 76 75 75 74 68 61 55 49 45 40 33 29 28 28 27 28 28
26 26 27 28 31 32 31 29 29 30 32 34 36 38 38 37 39 40 40 42 47 57 67 71 70 67 63 60 59 57 55 55 53 50 50 53 56 60 64 69 77 86 90 87 84 84 82 80 79 76 69 61 56 53 51 45 38 33 32 32 31 30 30
27 26 25 25 27 30 32 32 29 27 27 27 30 33 34 34 35 37 38 39 41 47 57 65 69 70 69 66 62 58 56 56 55 52 51 50 49 50 55 62 71 80 86 86 85 86 85 83 81 77 70 64 60 58 56 50 43 39 38 38 39 39 39
28 27 26 25 26 26 28 31 31 29 27 24 24 27 29 31 32 34 36 37 38 42 49 56 61 66 70 70 67 63 59 57 55 53 53 53 49 45 46 51 59 68 75 78 80 83 85 84 81 76 72 68 65 64 60 51 44 44 44 45 46 48 49
27 27 26 26 26 27 27 27 28 28 27 25 23 23 25 28 29 32 34 36 37 39 44 49 53 58 64 69 70 68 64 61 57 54 52 53 52 46 44 47 51 56 62 66 70 75 79 81 78 75 73 70 65 64 62 54 49 51 52 51 51 53 55
31 31 31 29 30 30 31 30 30 28 25 24 24 23 23 25 27 30 32 34 36 37 40 43 47 50 55 62 68 70 69 65 61 57 53 54 55 51 46 45 47 49 53 59 65 71 75 76 76 73 73 70 64 61 60 56 55 57 56 53 53 53 55
35 35 35 34 34 35 35 34 35 33 28 24 24 23 23 23 25 27 30 31 33 35 37 39 41 42 45 52 60 68 73 70 66 62 57 56 56 54 49 46 46 46 48 52 59 67 70 71 72 72 72 69 64 61 60 58 57 58 57 55 55 55 55